User: anonymous   Login
Location: Strohbehn Observatory
(42.4649°N, 93.8239°W)
Time: 05:27:29
(UTC-05:00)
Language:

SL-16 R/B - Orbit

View from above orbital plane
View from above orbital plane
View from above satellite
View from above satellite

Ground track
Ground track

The orbit data is extracted from the following two-line orbital elements,

1 31793U 07029B   17178.92413969 -.00000134 +00000-0 -45172-4 0  9991
2 31793 070.9762 006.6097 0002020 268.1928 250.7811 14.14387181516198
Epoch (UTC): 27 June 2017 22:10:45
Eccentricity: 0.0002020
inclination: 70.9762°
perigee height: 843 km
apogee height: 846 km
right ascension of ascending node: 6.6097°
argument of perigee: 268.1928°
revolutions per day: 14.14387181
mean anomaly at epoch: 250.7811°
orbit number at epoch: 51619

The dashed part of the orbit path shows where the satellite is in the earth's shadow,  

DLR